DMSP 5D-2 F14 DEB

Satellite information

Favourite Embed

Satellite Type and Status

DEBRISIN ORBIT

Key statistics

Satellite DMSP 5D-2 F14 DEB at a glance.

Uptime

10261

Days in orbit

Revolutions

≈ 14.3

Per day

Orbit

SSO

Sun Synchronous Orbit

Inclination

99.0

Latest

Satellite identification and parameters

Extended collection of information and parameters for DMSP 5D-2 F14 DEB.

Object identification

Identified? True

Debris? True

Object name: DMSP 5D-2 F14 DEB

International designator: 1997-012G

Object number (NORAD): 62936

Object ID (CCSDS): 62936

Country: UNITED STATES OF AMERICA (US)

Current information (Y/N): Y

RCS size: SMALL

Orbital parameters

Period: 100.778 minutes

Inclination: 99.0205 deg

SMA: 7173.584 km

Apoapsis: 810.702 km

Periapsis: 780.197 km

RAAN: 179.0311 deg

Eccentricy: 0.0021262

Argument of periapsis: 323.1985 deg

Mean anomaly: 36.7735 deg

Mean motion: 14.28888809 rev/day

Mean motion (dot): 0.00028739 rev/day2

B* drag term: 0.01133 1/REarth

Two-line elements (TLE)

Creation date: May 8, 2025, 3:01 a.m.

Reference frame: TEME

Reference center: EARTH

Epoch: May 7, 2025, 5:25 p.m. UTC

TLE line 0: 0 DMSP 5D-2 F14 DEB

TLE line 1: 1 62936U 97012G 25127.72579895 .00028739 00000-0 11330-1 0 9992

TLE line 2: 2 62936 99.0205 179.0311 0021262 323.1985 36.7735 14.28888809 19725

Live tracking on map

Real-time ground track for satellite DMSP 5D-2 F14 DEB.

In-orbit conjunctions

A list of the most updated potential collisions computed for object DMSP 5D-2 F14 DEB.

Target Orbit TCA Probability of collision Miss distance Type
COSMOS 836 LEO 2025-05-04 17:20:00 0.000338984 869.0 (m) PAYLOAD
THORAD AGENA D DEB SSO 2025-02-23 22:54:17 0.0001421926 544.0 (m) DEBRIS

Associated space launch

Military meteorological satellite

DMSP 5D-2 F14 DEB was lifted into orbit during the mission ‘Titan II SLV | DMSP-5D2 F14’, on board a Titan II SLV space rocket.

The launch took place on April 4, 1997, 4:47 p.m. from Space Launch Complex 4W.

For more information about the launch, click the button.

Launch to space Titan II SLV | DMSP-5D2 F14
Titan II SLV | DMSP-5D2 F14

Agency: N/A

Status: Launch Successful

Launch date: April 4, 1997, 4:47 p.m. UTC

Rocket: Titan II SLV

Launch pad: Space Launch Complex 4W

Location: Vandenberg SFB, CA, USA

...

Latest news about this satellite

News about space launch
Retired military weather satellite breaks up

A defunct military weather satellite has broken up in orbit and created more than 50 pieces of debris, the latest in a series of similar incidents. The post Retired military weather satellite breaks up appeared first on SpaceNews.


Newsletter sign-up

Weekly statistics, charts and insights to help you stay on top of the space industry.